Showing default

HAWK-13B, 67396

Orbit data source: Space-Track

HAWK-13B, 67396 is a payload satellite owned by HawkEye 360 (US) in SSO that was launched on Sun, 11 Jan 2026 UTC via an FALCON 9 launch vehicle from the Air Force Western Test Range (AFWTR). Payload-class satellites include a variety of spacecraft equipped with specific instruments for various scientific and technological missions. These include communications satellites like Starlink; space stations such as the ISS; scientific satellites like the Hubble; Earth observation satellites from companies like Planet Labs, Umbra, and HawkEye 360; GPS; miniature CubeSats for education and research; and military/defense satellites.

Loading next visibility...
Identifier
67396, 2026-004AK
Orbit
SSO
Country
Flag of USUS
Related business
Manufacturer
UTIAS-SFL
Mission
Operational Commercial Sigint
Bus & Motor
HAWK2G, Unknown motor
Mass
31 kg wet, 30 kg dry
Launch date (UTC)
2026-01-11 (8 months ago)
Launch vehicle
FALCON 9
Launch site
Air Force Western Test Range (AFWTR)
Object type
Payload
Rocket body
Debris
Shape & HBR
Box + 2 Pan, 1.0 m
Radar Cross Section
0.240 m², Medium (>0.1 m² and < 1m²)

Expand to show TLE details & history
Last TLE update: 11 hours ago

TLE from 11 hours ago
0 HAWK-13B
1 67396U 26004AK  26264.47223336  .00002797  00000-0  13373-3 0  9998
2 67396  97.4591 262.3615 0006834  14.7705 345.3728 15.19807743 38387
Epoch: 2026-09-21T11:20Z
TLE epoch observation values (Epoch: 2026-09-21T11:20:00.962Z)
Latitude
-0.00004°
Longitude
92.00592°
Altitude
504.956 km
Speed
7.614 km/s
True Right ascension
17h 29m 26s
True Declination
0° 00' 00"
Sunlit
Object was in daylight at epoch
Visualization orbit readout
Latitude
Unknown
Longitude
Unknown
Altitude
Unknown
Speed
Unknown
Apparent Right ascension
Unknown
Apparent Declination
Unknown
Sunlit
N/A
Visualization observer readout
Local Sidereal Time
15:38:20
Azimuth
Unknown
Elevation
Unknown
Doppler factor
Unknown
Orbital elements
Apogee altitude
508.092 km
Perigee altitude
498.687 km
Semi-major axis
6,881.527 km
Eccentricity
0.00068
Inclination
97.4591°
RAAN
262.3615°
Arg. of periapsis
14.7705°
True anomaly
345.35301°
Mean anomaly
345.3728°
Eccentric anomaly
345.36291°
Mean motion
3.80203 °/min
Orbital period
94.69 mins
BSTAR
0.00013373
Loading maneuver chart data...
Computing Atmospheric mass density...
Loading historical data...
Loading historical data...
Loading historical data...
Loading historical data...
Loading historical data...
Loading historical data...
Loading historical data...

Documentation

Showing up to 5 results
|